Airfield :
LOGIN :

Register | Disclaimer

   EN    FR    IT 

 










Legend :    VFR   Marginal VFR   IFR   Intensive IFR   Very Intensive IFR
Visi :
Ceiling :
>= 8 km
>= 3000ft
5 to 8 km
1000 to 3000 ft
1500m to 5 km
500 to 1000 ft
800 to 1500m
200 to 500 ft
< 800m
< 200 ft
Symbols :   Thunderstorms  Fog  Heavy snow  Heavy precipitations  Wind > 20 kt
SIGMETs :     Misc.  Thunderstorms  Icing  Turbulence  Mountain Waves  Volcanic Ashes







- Airport Elevation : 156 ft
- IATA code : OMO


LQMO - Mostar

CURRENT METAR :
  • 172300Z 35005KT 8000 FEW040 SCT055 BKN070 06/02 Q1016

EXPIRED METARs :
  • 172200Z VRB02KT 7000 FEW040 SCT055 BKN075 06/02 Q1016
  • 172100Z 32004KT 6000 FEW040 BKN057 05/02 Q1017
  • 172030Z VRB02KT 6000 SCT040 BKN055 06/02 Q1017

TAF TAF LQMO
Valid from the 18 at 00:00 until the 19 at 00:00 UTC


172300Z 1800/1824 14005KT 6000 SCT035 BKN050 TX06/1800Z TN03/1824Z
TEMPO 1800/1818 2500 -RA BR
PROB30
TEMPO 1810/1815 15015KT 4000 SHRA FEW033TCU BKN040
TEMPO 1818/1824 36010KT 3000 SNRA
No reported NOTAMs for that airfield.



MET'MAP, your aeronautical weather chart ! - Copyright ORBIFLY December 2007 - Disclaimer

ORBIFLY MET'MAP TEAM :

Programming & Development : Alexandra Zaïnal
Concept & Development : Baudouin d'Aumeries
Co-Development & Prog : Marc-Olivier Méhu
Technical & hardware support : Manuel Goepfert

Contact : metmap@orbifly.com




SOURCES & CREDITS :

   NOAA